SCP
0 0 0 0 0 0 0 0 0 0 0 0 0 0 0 0 0 0 0 0 0 0 0 0 0 0 0 0 0 0 0 -0 0 0 0 0 0 0 0 0 0 0 0 0 0 0 0
0 0 0 0 0 0 0 0 0 0 0 0 0 0 0 0 0 0 0 0 0 0 0 0 0 0 0 0 0 0 0 0 0 0 0 0 0 0 0 0 0 0 0 0 0 0 0
0 0 0 0 0 0 0 0 0 0 0 0 0 0 0 0 0 0 0 0 0 0 0 0 0 0 0 0 0 0 0 0 0 0 0 0 0 0 0 0 0 0 0 0 0 0 0
0 0 0 0 0 0 0 0 0 0 0 0 0 0 0 0 0 0 0 0 0 0 0 0 0 0 0 0 0 0 0 0 0 0 0 0 0 0 0 0 0 0 0 0 0 0 0
0 0 0 0 0 0 0 0 0 0 0 0 0 0 0 0 0 0 0 0 0 0 0 0 0 0 0 0 0 0 0 0 0 0 0 0 0 0 0 0 0 0 0 0 0 0 0
0 0 0 0 0 0 0 0 0 0 0 0 0 0 0 0 0 0 0 0 0 0 0 0 0 0 0 0 0 0 0 0 0 0 0 0 0 0 0 0 0 0 0 0 0 0 0
0 0 0 0 0 0 0 0 0 0 0 0 0 0 0 0 0 0 0 0 0 0 0 0 0 0 0 0 0 0 0 0 0 0 0 0 0 0 0 0 0 0 0 0 0 0 0
0 0 0 0 0 0 0 0 0 0 0 0 0 0 0 0 0 0 0 0 0 0 0 0 0 0 0 0 0 0 0 0 0 0 0 0 0 0 0 0 0 0 0 0 0 0 0
0 0 0 0 0 0 0 0 0 0 0 0 0 0 0 0 0 0 0 0 0 0 0 0 0 0 0 0 0 0 0 0 0 0 0 0 0 0 0 0 0 0 0 0 0 0 0
0 0 0 0 0 0 0 0 0 0 0 0 0 0 0 0 0 0 0 0 0 0 0 0 0 0 0 0 0 0 0 0 0 0 0 0 0 0 0 0 0 0 0 0 0 0 0
0 0 0 0 0 0 0 0 0 0 0 0 0 0 0 0 0 0 0 0 0 0 0 0 0 0 0 0 0 0 0 0 0 0 0 0 0 0 0 0 0 0 0 0 0 0 0
0 0 0 0 0 0 0 0 0 0 0 0 0 0 0 0 0 0 0 0 0 0 0 0 0 0 0 0 0 0 0 0 0 0 0 0 0 0 0 0 0 0 0 0 0 0 0
0 0 0 0 0 0 0 0 0 0 0 0 0 0 0 0 0 0 0 0 0 0 0 0 0 0 0 0 0 0 0 0 0 0 0 -0 0 -0 0 0 0 0 0 0 0 0 0
0 0 0 0 0 0 0 0 0 0 0 0 0 0 0 0 0 0 0 0 0 0 0 0 0 0 0 0 0 0 0 0 0 0 0 0 0 0 0 0 0 0 0 0 0 0 0
0 0 0 0 0 0 0 0 0 0 0 0 0 0 0 0 0 0 0 0 0 0 0 0 0 0 0 0 0 0 0 0 0 0 0 0 0 0 0 0 0 0 0 0 0 0 0
0 0 0 0 0 0 0 0 0 0 0 0 0 0 0 0 0 0 0 0 0 0 0 0 0 0 0 0 0 0 0 0 0 0 0 0 0 0 0 0 0 0 0 0 0 0 0
0 0 0 0 0 0 0 0 0 0 0 0 0 0 0 0 0 0 0 0 0 0 0 0 0 0 0 0 0 0 0 0 0 0 0 0 0 0 0 0 0 0 0 0 0 0 0
0 0 0 0 0 0 0 0 0 0 0 0 0 0 0 0 0 0 0 0 0 0 0 0 0 0 0 0 0 0 0 0 0 0 0 0 0 0 0 0 0 0 0 0 0 0 0
0 0 0 0 0 0 0 0 0 0 0 0 0 0 0 0 0 0 0 0 0 0 0 0 0 0 0 0 0 0 0 0 0 0 0 0 0 0 0 0 0 0 0 0 0 0 0
0 0 0 0 0 0 0 0 0 0 0 0 0 0 0 0 0 0 0 0 0 0 0 0 0 0 0 0 0 0 0 0 0 0 0 0 0 0 0 0 0 0 0 0 0 0 0
0 0 0 0 0 0 0 0 0 0 0 0 0 0 0 0 0 0 0 0 0 0 0 0 0 0 0 0 0 0 0 0 0 0 0 0 0 0 0 0 0 0 0 0 0 0 0
0 0 0 0 0 0 0 0 0 0 0 0 0 0 0 0 0 0 0 0 0 0 0 0 0 0 0 0 0 0 0 0 0 0 0 0 0 0 0 0 0 0 0 0 0 0 0
0 0 0 0 0 0 0 0 0 0 0 0 0 0 0 0 0 0 0 0 0 0 0 0 0 0 0 0 0 0 0 0 0 0 0 0 0 0 0 0 0 0 0 0 0 0 0
-0 -0 0 0 0 0 0 0 0 0 0 0 0 0 0 0 0 0 0 0 0 0 0 0 0 0 0 0 0 0 0 0 0 0 0 0 0 0 0 0 0 0 0 0 0 0 0
-0 -0 -0 0 0 0 0 0 0 0 0 0 0 0 0 0 0 0 -0 -0 0 0 0 0 0 0 0 0 0 0 0 0 0 0 0 0 0 0 0 0 0 0 0 0 0 0 0
-0 -0 -0 0 0 0 0 0 0 0 0 0 0 0 0 0 0 0 0 0 0 0 0 0 0 0 0 0 0 0 0 0 0 0 0 0 0 0 0 0 0 0 0 0 0 0 0
0 0 0 0 0 0 0 0 0 0 0 0 0 0 0 0 0 0 0 0 0 0 0 0 0 0 0 0 0 0 0 0 0 0 0 0 0 0 0 0 0 0 0 0 0 0 0
0 0 0 0 0 0 0 0 0 0 0 0 0 0 0 0 0 0 0 0 0 0 0 0 0 0 0 0 0 0 0 0 0 0 0 0 0 0 0 0 0 0 0 0 0 0 0
0 0 0 0 0 0 0 0 0 0 0 0 0 0 0 0 0 0 0 0 0 0 0 0 0 0 0 0 0 0 0 0 0 0 0 0 0 0 0 0 0 0 0 0 0 0 -0
Wind_Speed_500mb
81 84 81 84 82 73 68 69 69 68 67 64 61 57 53 50 46 43 39 36 34 33 32 33 34 39 38 12 39 39 35 33 32 17 15 14 22 26 11 25 35 13 12 37 53 58 57
80 84 86 81 81 80 73 70 67 68 67 67 65 61 57 54 48 45 41 37 35 33 33 33 34 36 32 17 38 15 16 27 30 4 15 17 17 25 24 20 14 30 40 41 49 51 49
73 82 87 88 85 82 79 77 73 68 68 67 67 64 60 56 51 47 41 37 36 35 33 33 34 35 42 56 42 39 27 34 24 20 21 21 20 20 32 18 25 37 27 34 38 33 28
94 68 82 87 88 92 81 84 77 74 69 68 68 65 60 56 53 47 42 38 38 36 35 32 32 35 32 47 42 53 48 50 40 35 32 37 28 29 20 20 22 13 11 12 5 23 30
103 101 72 78 86 90 88 78 81 80 73 70 69 66 61 57 52 45 41 40 37 35 33 31 28 24 34 12 23 14 24 42 44 32 30 24 23 29 17 7 10 9 11 18 19 18 20
88 97 100 75 78 81 88 91 78 85 79 74 71 66 62 57 52 47 42 39 35 32 35 31 30 17 32 32 28 21 4 10 21 20 29 33 15 7 3 9 11 10 13 15 17 18 28
90 86 95 100 79 79 81 86 85 80 86 80 75 70 63 59 55 53 46 36 22 18 39 34 22 26 12 12 10 20 16 12 19 26 11 31 8 12 27 24 24 21 29 32 30 19 23
86 90 89 89 99 81 80 82 82 85 76 79 79 72 66 63 59 53 51 56 36 9 18 53 73 70 70 47 26 25 23 24 19 14 19 4 16 28 30 30 28 26 29 27 12 19 26
81 88 89 87 89 95 84 82 82 83 82 75 84 79 77 70 63 61 64 63 40 39 12 19 52 63 70 56 58 45 37 37 15 20 22 23 19 34 29 26 24 21 16 11 15 24 14
90 81 92 87 86 93 93 86 81 81 77 73 81 74 79 72 63 73 68 60 61 33 6 12 25 39 67 54 36 62 58 41 16 18 15 16 24 30 25 24 12 13 14 21 21 19 9
90 84 88 90 86 90 93 89 85 81 78 80 79 77 80 86 65 72 71 65 38 25 7 9 16 18 35 45 4 42 58 60 33 26 13 12 8 16 17 14 8 11 9 10 10 9 13
96 86 82 88 86 88 92 86 93 89 82 79 86 89 85 89 80 73 61 63 49 9 17 9 14 9 10 59 20 7 22 29 33 19 19 17 34 8 8 2 7 9 8 12 10 0 11
82 82 92 85 85 87 93 94 89 90 91 84 87 93 100 99 91 79 65 63 7 12 10 16 11 18 24 25 30 15 14 10 13 11 23 27 37 32 24 15 10 10 7 3 5 1 13
83 85 98 87 85 85 86 94 97 91 96 87 86 94 98 100 92 79 83 7 13 20 26 17 22 28 24 18 25 30 18 15 24 12 2 15 9 35 29 40 16 17 15 9 10 8 7
71 66 93 84 82 86 86 85 93 87 90 84 87 97 92 97 95 87 58 20 23 14 23 17 29 30 28 32 17 27 26 16 16 28 13 9 10 6 9 16 29 13 16 16 7 7 6
79 79 79 77 79 77 84 83 84 87 86 86 95 74 71 72 75 99 32 21 11 19 21 27 25 19 27 34 31 30 22 18 26 12 30 4 2 2 7 13 7 3 12 2 6 8 10
72 64 71 68 75 71 74 79 80 88 91 90 81 39 56 92 99 43 18 16 15 32 30 11 35 16 24 25 32 18 14 13 26 11 5 6 6 7 13 6 10 3 7 6 8 9 8
54 62 57 52 53 59 76 84 99 97 106 112 50 7 47 74 22 9 8 18 18 25 10 3 4 41 18 21 21 28 24 2 17 21 11 1 5 8 10 12 13 6 2 13 8 8 7
82 68 50 55 72 62 80 81 93 91 109 80 33 14 32 34 15 8 3 10 3 11 12 8 7 3 5 4 11 30 10 2 20 10 9 4 3 4 11 5 7 3 4 9 11 9 14
68 58 60 36 40 63 61 90 76 59 47 60 16 7 10 9 2 9 12 5 9 8 14 6 4 4 3 3 7 8 11 7 8 8 13 6 5 8 11 9 3 2 13 9 7 3 5
73 74 69 55 48 51 58 48 49 37 39 27 8 6 13 5 4 7 12 7 10 11 16 11 2 4 1 2 7 15 25 12 17 8 6 8 6 5 6 12 11 9 19 17 15 13 10
57 54 55 52 54 56 50 48 48 43 31 15 11 8 15 10 26 10 8 11 23 14 5 7 3 5 5 6 7 8 17 6 9 7 7 4 4 5 7 6 5 20 32 18 23 25 27
50 48 49 47 45 45 47 47 48 50 40 14 24 30 27 21 11 8 6 8 15 11 9 6 19 3 10 13 34 33 33 18 8 8 5 10 9 6 4 7 7 16 23 30 26 28 21
49 45 39 36 35 37 39 42 44 38 28 36 23 20 15 10 13 13 20 5 11 17 7 14 7 6 7 16 19 29 33 25 15 7 12 3 11 6 4 10 2 15 12 15 23 26 25
46 45 41 34 34 35 36 38 43 33 29 26 19 17 10 6 12 14 25 22 30 14 6 13 12 19 23 24 9 9 8 10 2 8 9 5 6 3 8 13 12 27 16 7 4 19 16
41 42 41 35 32 32 33 37 42 30 26 31 24 24 16 7 4 20 22 42 16 11 11 6 10 14 23 7 7 6 6 6 8 6 26 20 12 7 4 9 16 11 8 18 11 13 11
34 34 35 36 37 38 37 37 41 29 26 27 25 22 22 16 24 13 7 22 20 14 11 22 11 6 7 4 6 7 8 13 11 10 7 8 5 21 17 8 13 11 9 37 7 10 24
31 31 31 30 33 35 36 40 39 29 30 17 20 14 17 11 19 16 23 21 28 31 9 33 12 1 4 5 5 6 5 7 3 9 9 13 11 10 5 5 19 17 18 12 10 14 12
28 30 31 32 30 33 36 41 38 31 27 28 37 29 26 16 10 14 18 15 26 20 32 38 22 18 14 5 3 3 3 2 11 7 6 9 11 8 15 13 21 35 29 11 14 18 9
Wind_Direction_500mb
245 241 238 241 236 233 235 236 233 231 232 233 234 236 237 240 243 248 252 258 265 272 280 288 296 302 310 294 260 280 307 307 305 300 304 308 308 303 278 322 329 298 290 295 292 287 279
243 242 238 237 242 233 232 234 235 235 234 234 233 233 234 236 237 242 246 252 257 263 270 280 288 296 301 265 290 243 304 291 297 257 277 285 310 321 305 295 297 301 314 309 302 294 296
241 243 239 238 238 238 232 235 233 234 235 234 235 233 233 234 236 238 241 245 252 256 263 272 284 295 285 260 277 274 245 246 255 256 273 247 302 319 319 322 319 324 314 307 287 293 278
237 240 237 236 237 237 243 234 233 233 231 232 233 234 233 234 236 236 239 242 248 256 265 275 287 302 272 292 289 264 256 243 246 264 254 273 276 285 282 288 319 318 294 279 123 257 260
244 242 238 238 236 237 241 243 233 233 233 230 230 230 230 230 232 232 234 237 244 255 265 278 290 297 273 296 270 313 241 244 242 244 250 254 250 259 270 295 321 235 262 265 295 269 269
241 246 242 236 235 236 236 237 240 233 231 230 229 228 226 225 224 223 223 230 240 251 265 269 260 288 265 273 269 258 204 239 230 226 235 227 218 233 221 178 230 230 248 284 290 303 318
240 240 243 241 235 234 235 234 240 240 233 227 226 225 223 220 218 217 213 218 221 251 232 216 213 210 246 290 267 234 194 197 204 198 179 194 174 216 224 223 231 256 266 273 281 296 327
239 239 240 240 237 234 235 236 236 236 233 233 221 222 217 215 216 216 213 215 209 213 253 242 248 247 257 262 287 244 203 199 188 207 201 212 224 226 233 242 250 252 265 275 289 333 319
242 237 239 237 236 233 234 233 232 233 231 232 219 221 214 211 211 215 216 217 213 225 280 263 241 244 237 244 246 244 195 204 222 205 216 215 226 222 227 245 252 267 268 279 304 322 325
242 238 235 236 234 230 229 230 229 228 227 227 214 215 210 206 212 214 220 230 216 227 262 264 213 255 229 226 247 236 237 236 221 232 251 247 232 249 271 252 268 270 288 314 321 295 306
242 237 239 235 234 228 225 225 226 226 225 220 217 220 213 205 206 213 224 213 211 169 256 222 205 247 197 186 185 210 220 228 233 216 193 230 244 246 254 254 259 276 34 338 307 1 327
237 243 236 230 231 227 223 221 222 225 225 220 218 219 212 206 212 214 206 204 169 109 241 252 130 156 220 190 220 136 188 206 229 243 261 250 262 268 238 297 109 61 26 327 309 173 278
232 243 237 228 228 226 221 220 221 222 224 226 221 216 216 212 203 208 199 166 127 182 207 201 155 176 190 187 207 164 198 187 170 163 229 247 246 251 250 260 163 136 109 298 337 165 241
235 237 233 226 221 222 220 220 221 226 220 220 220 223 214 208 205 208 174 128 210 189 187 195 157 161 190 173 211 228 192 189 227 263 299 193 245 208 214 224 192 181 168 170 204 204 265
234 234 228 221 217 220 217 218 216 218 216 215 219 209 196 205 206 202 169 217 186 183 207 181 159 168 194 209 180 200 217 219 188 212 202 219 243 75 88 208 201 184 202 209 357 9 27
220 228 214 214 217 218 214 217 214 214 207 207 198 176 173 176 193 187 188 222 228 215 180 207 185 188 181 207 209 185 175 208 235 182 209 299 332 178 65 51 30 106 147 75 85 200 218
220 219 205 211 216 215 220 214 210 206 202 198 170 155 168 168 171 183 212 183 212 226 220 224 192 207 214 198 210 200 196 215 193 144 68 117 123 288 103 144 180 132 162 188 169 161 183
217 193 189 197 202 211 211 216 212 199 201 173 150 119 169 165 172 122 191 173 215 233 122 212 287 207 190 222 200 201 218 222 116 135 161 162 150 224 228 96 68 51 353 165 143 255 217
174 175 169 154 189 180 175 164 171 181 161 159 129 108 172 173 187 130 313 170 70 244 195 180 217 241 62 252 180 213 111 326 66 65 124 150 207 73 347 59 53 0 346 23 37 18 252
150 155 160 140 111 131 135 151 155 158 143 145 113 112 60 122 129 108 117 276 199 206 259 222 270 248 325 293 48 109 106 128 81 99 110 82 76 142 176 99 111 300 324 312 150 164 312
119 123 127 131 123 120 128 133 129 140 143 134 91 153 116 135 27 95 147 122 216 230 302 329 257 114 338 135 17 114 111 102 113 149 57 96 125 72 63 40 9 316 284 282 281 266 222
114 118 124 130 136 136 140 142 147 155 146 146 123 119 102 97 121 92 134 166 203 199 161 310 72 207 251 62 12 95 131 143 169 205 125 68 142 90 11 77 306 282 275 288 268 264 272
113 115 121 128 136 144 151 155 154 153 152 126 103 122 111 134 123 129 175 136 157 137 290 196 303 343 88 52 76 68 85 97 57 121 114 144 132 103 255 171 241 281 246 252 273 270 260
113 116 116 121 134 138 142 151 155 152 152 137 123 139 111 149 152 164 157 129 150 173 129 127 94 46 113 89 85 61 60 51 31 41 140 143 130 101 168 59 287 242 285 282 267 270 272
101 108 117 122 126 131 138 141 146 144 132 139 127 105 98 114 145 162 154 172 122 113 67 84 58 141 124 79 60 35 11 32 64 235 223 171 114 151 149 196 288 288 277 261 300 299 305
98 105 116 119 118 123 133 137 145 136 128 146 114 108 90 105 216 150 149 157 142 149 124 132 79 148 117 83 83 143 155 206 183 230 205 185 182 150 130 168 211 232 224 297 346 286 21
107 108 110 114 118 122 130 146 142 134 147 147 111 99 100 79 46 100 118 163 165 131 129 139 117 81 58 113 136 171 197 180 198 183 159 178 191 206 222 219 261 250 313 279 186 241 3
108 110 110 113 117 119 126 137 160 169 185 182 123 108 119 88 61 111 59 129 153 146 141 153 97 6 45 100 138 202 144 225 209 216 194 185 174 202 178 161 257 203 250 232 215 241 300
120 117 117 120 120 123 127 133 133 122 115 139 118 123 121 100 116 150 126 117 107 110 171 166 174 138 165 132 216 147 182 142 180 238 257 256 182 206 189 214 221 239 253 269 236 236 260
Wind_Speed_850mb
81 84 81 84 82 73 68 69 69 68 67 64 61 57 53 50 46 43 39 36 34 33 32 33 34 39 38 12 39 39 35 33 32 17 15 14 22 26 11 25 35 13 12 37 53 58 57
80 84 86 81 81 80 73 70 67 68 67 67 65 61 57 54 48 45 41 37 35 33 33 33 34 36 32 17 38 15 16 27 30 4 15 17 17 25 24 20 14 30 40 41 49 51 49
73 82 87 88 85 82 79 77 73 68 68 67 67 64 60 56 51 47 41 37 36 35 33 33 34 35 42 56 42 39 27 34 24 20 21 21 20 20 32 18 25 37 27 34 38 33 28
94 68 82 87 88 92 81 84 77 74 69 68 68 65 60 56 53 47 42 38 38 36 35 32 32 35 32 47 42 53 48 50 40 35 32 37 28 29 20 20 22 13 11 12 5 23 30
103 101 72 78 86 90 88 78 81 80 73 70 69 66 61 57 52 45 41 40 37 35 33 31 28 24 34 12 23 14 24 42 44 32 30 24 23 29 17 7 10 9 11 18 19 18 20
88 97 100 75 78 81 88 91 78 85 79 74 71 66 62 57 52 47 42 39 35 32 35 31 30 17 32 32 28 21 4 10 21 20 29 33 15 7 3 9 11 10 13 15 17 18 28
90 86 95 100 79 79 81 86 85 80 86 80 75 70 63 59 55 53 46 36 22 18 39 34 22 26 12 12 10 20 16 12 19 26 11 31 8 12 27 24 24 21 29 32 30 19 23
86 90 89 89 99 81 80 82 82 85 76 79 79 72 66 63 59 53 51 56 36 9 18 53 73 70 70 47 26 25 23 24 19 14 19 4 16 28 30 30 28 26 29 27 12 19 26
81 88 89 87 89 95 84 82 82 83 82 75 84 79 77 70 63 61 64 63 40 39 12 19 52 63 70 56 58 45 37 37 15 20 22 23 19 34 29 26 24 21 16 11 15 24 14
90 81 92 87 86 93 93 86 81 81 77 73 81 74 79 72 63 73 68 60 61 33 6 12 25 39 67 54 36 62 58 41 16 18 15 16 24 30 25 24 12 13 14 21 21 19 9
90 84 88 90 86 90 93 89 85 81 78 80 79 77 80 86 65 72 71 65 38 25 7 9 16 18 35 45 4 42 58 60 33 26 13 12 8 16 17 14 8 11 9 10 10 9 13
96 86 82 88 86 88 92 86 93 89 82 79 86 89 85 89 80 73 61 63 49 9 17 9 14 9 10 59 20 7 22 29 33 19 19 17 34 8 8 2 7 9 8 12 10 0 11
82 82 92 85 85 87 93 94 89 90 91 84 87 93 100 99 91 79 65 63 7 12 10 16 11 18 24 25 30 15 14 10 13 11 23 27 37 32 24 15 10 10 7 3 5 1 13
83 85 98 87 85 85 86 94 97 91 96 87 86 94 98 100 92 79 83 7 13 20 26 17 22 28 24 18 25 30 18 15 24 12 2 15 9 35 29 40 16 17 15 9 10 8 7
71 66 93 84 82 86 86 85 93 87 90 84 87 97 92 97 95 87 58 20 23 14 23 17 29 30 28 32 17 27 26 16 16 28 13 9 10 6 9 16 29 13 16 16 7 7 6
79 79 79 77 79 77 84 83 84 87 86 86 95 74 71 72 75 99 32 21 11 19 21 27 25 19 27 34 31 30 22 18 26 12 30 4 2 2 7 13 7 3 12 2 6 8 10
72 64 71 68 75 71 74 79 80 88 91 90 81 39 56 92 99 43 18 16 15 32 30 11 35 16 24 25 32 18 14 13 26 11 5 6 6 7 13 6 10 3 7 6 8 9 8
54 62 57 52 53 59 76 84 99 97 106 112 50 7 47 74 22 9 8 18 18 25 10 3 4 41 18 21 21 28 24 2 17 21 11 1 5 8 10 12 13 6 2 13 8 8 7
82 68 50 55 72 62 80 81 93 91 109 80 33 14 32 34 15 8 3 10 3 11 12 8 7 3 5 4 11 30 10 2 20 10 9 4 3 4 11 5 7 3 4 9 11 9 14
68 58 60 36 40 63 61 90 76 59 47 60 16 7 10 9 2 9 12 5 9 8 14 6 4 4 3 3 7 8 11 7 8 8 13 6 5 8 11 9 3 2 13 9 7 3 5
73 74 69 55 48 51 58 48 49 37 39 27 8 6 13 5 4 7 12 7 10 11 16 11 2 4 1 2 7 15 25 12 17 8 6 8 6 5 6 12 11 9 19 17 15 13 10
57 54 55 52 54 56 50 48 48 43 31 15 11 8 15 10 26 10 8 11 23 14 5 7 3 5 5 6 7 8 17 6 9 7 7 4 4 5 7 6 5 20 32 18 23 25 27
50 48 49 47 45 45 47 47 48 50 40 14 24 30 27 21 11 8 6 8 15 11 9 6 19 3 10 13 34 33 33 18 8 8 5 10 9 6 4 7 7 16 23 30 26 28 21
49 45 39 36 35 37 39 42 44 38 28 36 23 20 15 10 13 13 20 5 11 17 7 14 7 6 7 16 19 29 33 25 15 7 12 3 11 6 4 10 2 15 12 15 23 26 25
46 45 41 34 34 35 36 38 43 33 29 26 19 17 10 6 12 14 25 22 30 14 6 13 12 19 23 24 9 9 8 10 2 8 9 5 6 3 8 13 12 27 16 7 4 19 16
41 42 41 35 32 32 33 37 42 30 26 31 24 24 16 7 4 20 22 42 16 11 11 6 10 14 23 7 7 6 6 6 8 6 26 20 12 7 4 9 16 11 8 18 11 13 11
34 34 35 36 37 38 37 37 41 29 26 27 25 22 22 16 24 13 7 22 20 14 11 22 11 6 7 4 6 7 8 13 11 10 7 8 5 21 17 8 13 11 9 37 7 10 24
31 31 31 30 33 35 36 40 39 29 30 17 20 14 17 11 19 16 23 21 28 31 9 33 12 1 4 5 5 6 5 7 3 9 9 13 11 10 5 5 19 17 18 12 10 14 12
28 30 31 32 30 33 36 41 38 31 27 28 37 29 26 16 10 14 18 15 26 20 32 38 22 18 14 5 3 3 3 2 11 7 6 9 11 8 15 13 21 35 29 11 14 18 9
Wind_Direction_850mb
245 241 238 241 236 233 235 236 233 231 232 233 234 236 237 240 243 248 252 258 265 272 280 288 296 302 310 294 260 280 307 307 305 300 304 308 308 303 278 322 329 298 290 295 292 287 279
243 242 238 237 242 233 232 234 235 235 234 234 233 233 234 236 237 242 246 252 257 263 270 280 288 296 301 265 290 243 304 291 297 257 277 285 310 321 305 295 297 301 314 309 302 294 296
241 243 239 238 238 238 232 235 233 234 235 234 235 233 233 234 236 238 241 245 252 256 263 272 284 295 285 260 277 274 245 246 255 256 273 247 302 319 319 322 319 324 314 307 287 293 278
237 240 237 236 237 237 243 234 233 233 231 232 233 234 233 234 236 236 239 242 248 256 265 275 287 302 272 292 289 264 256 243 246 264 254 273 276 285 282 288 319 318 294 279 123 257 260
244 242 238 238 236 237 241 243 233 233 233 230 230 230 230 230 232 232 234 237 244 255 265 278 290 297 273 296 270 313 241 244 242 244 250 254 250 259 270 295 321 235 262 265 295 269 269
241 246 242 236 235 236 236 237 240 233 231 230 229 228 226 225 224 223 223 230 240 251 265 269 260 288 265 273 269 258 204 239 230 226 235 227 218 233 221 178 230 230 248 284 290 303 318
240 240 243 241 235 234 235 234 240 240 233 227 226 225 223 220 218 217 213 218 221 251 232 216 213 210 246 290 267 234 194 197 204 198 179 194 174 216 224 223 231 256 266 273 281 296 327
239 239 240 240 237 234 235 236 236 236 233 233 221 222 217 215 216 216 213 215 209 213 253 242 248 247 257 262 287 244 203 199 188 207 201 212 224 226 233 242 250 252 265 275 289 333 319
242 237 239 237 236 233 234 233 232 233 231 232 219 221 214 211 211 215 216 217 213 225 280 263 241 244 237 244 246 244 195 204 222 205 216 215 226 222 227 245 252 267 268 279 304 322 325
242 238 235 236 234 230 229 230 229 228 227 227 214 215 210 206 212 214 220 230 216 227 262 264 213 255 229 226 247 236 237 236 221 232 251 247 232 249 271 252 268 270 288 314 321 295 306
242 237 239 235 234 228 225 225 226 226 225 220 217 220 213 205 206 213 224 213 211 169 256 222 205 247 197 186 185 210 220 228 233 216 193 230 244 246 254 254 259 276 34 338 307 1 327
237 243 236 230 231 227 223 221 222 225 225 220 218 219 212 206 212 214 206 204 169 109 241 252 130 156 220 190 220 136 188 206 229 243 261 250 262 268 238 297 109 61 26 327 309 173 278
232 243 237 228 228 226 221 220 221 222 224 226 221 216 216 212 203 208 199 166 127 182 207 201 155 176 190 187 207 164 198 187 170 163 229 247 246 251 250 260 163 136 109 298 337 165 241
235 237 233 226 221 222 220 220 221 226 220 220 220 223 214 208 205 208 174 128 210 189 187 195 157 161 190 173 211 228 192 189 227 263 299 193 245 208 214 224 192 181 168 170 204 204 265
234 234 228 221 217 220 217 218 216 218 216 215 219 209 196 205 206 202 169 217 186 183 207 181 159 168 194 209 180 200 217 219 188 212 202 219 243 75 88 208 201 184 202 209 357 9 27
220 228 214 214 217 218 214 217 214 214 207 207 198 176 173 176 193 187 188 222 228 215 180 207 185 188 181 207 209 185 175 208 235 182 209 299 332 178 65 51 30 106 147 75 85 200 218
220 219 205 211 216 215 220 214 210 206 202 198 170 155 168 168 171 183 212 183 212 226 220 224 192 207 214 198 210 200 196 215 193 144 68 117 123 288 103 144 180 132 162 188 169 161 183
217 193 189 197 202 211 211 216 212 199 201 173 150 119 169 165 172 122 191 173 215 233 122 212 287 207 190 222 200 201 218 222 116 135 161 162 150 224 228 96 68 51 353 165 143 255 217
174 175 169 154 189 180 175 164 171 181 161 159 129 108 172 173 187 130 313 170 70 244 195 180 217 241 62 252 180 213 111 326 66 65 124 150 207 73 347 59 53 0 346 23 37 18 252
150 155 160 140 111 131 135 151 155 158 143 145 113 112 60 122 129 108 117 276 199 206 259 222 270 248 325 293 48 109 106 128 81 99 110 82 76 142 176 99 111 300 324 312 150 164 312
119 123 127 131 123 120 128 133 129 140 143 134 91 153 116 135 27 95 147 122 216 230 302 329 257 114 338 135 17 114 111 102 113 149 57 96 125 72 63 40 9 316 284 282 281 266 222
114 118 124 130 136 136 140 142 147 155 146 146 123 119 102 97 121 92 134 166 203 199 161 310 72 207 251 62 12 95 131 143 169 205 125 68 142 90 11 77 306 282 275 288 268 264 272
113 115 121 128 136 144 151 155 154 153 152 126 103 122 111 134 123 129 175 136 157 137 290 196 303 343 88 52 76 68 85 97 57 121 114 144 132 103 255 171 241 281 246 252 273 270 260
113 116 116 121 134 138 142 151 155 152 152 137 123 139 111 149 152 164 157 129 150 173 129 127 94 46 113 89 85 61 60 51 31 41 140 143 130 101 168 59 287 242 285 282 267 270 272
101 108 117 122 126 131 138 141 146 144 132 139 127 105 98 114 145 162 154 172 122 113 67 84 58 141 124 79 60 35 11 32 64 235 223 171 114 151 149 196 288 288 277 261 300 299 305
98 105 116 119 118 123 133 137 145 136 128 146 114 108 90 105 216 150 149 157 142 149 124 132 79 148 117 83 83 143 155 206 183 230 205 185 182 150 130 168 211 232 224 297 346 286 21
107 108 110 114 118 122 130 146 142 134 147 147 111 99 100 79 46 100 118 163 165 131 129 139 117 81 58 113 136 171 197 180 198 183 159 178 191 206 222 219 261 250 313 279 186 241 3
108 110 110 113 117 119 126 137 160 169 185 182 123 108 119 88 61 111 59 129 153 146 141 153 97 6 45 100 138 202 144 225 209 216 194 185 174 202 178 161 257 203 250 232 215 241 300
120 117 117 120 120 123 127 133 133 122 115 139 118 123 121 100 116 150 126 117 107 110 171 166 174 138 165 132 216 147 182 142 180 238 257 256 182 206 189 214 221 239 253 269 236 236 260